Regional Weather Roundup
Issued by NWS

Home | Current Version | Previous Version | Text Only | Print | Product List | Glossary On
Versions: 1 2 3 4 5 6 7 8 9 10 11 12 13 14 15 16 17 18 19 20 21 22 23 24 25 26 27 28 29 30 31 32 33 34 35 36 37 38 39 40 41 42 43 44 45 46 47 48 49 50
000
ASUS43 KDTX 071101
RWRMI
MICHIGAN HOURLY REGIONAL WEATHER ROUNDUP
NATIONAL WEATHER SERVICE DETROIT/PONTIAC MI
700 AM EDT TUE JUL 07 2015

NOTE: "FAIR" INDICATES FEW OR NO CLOUDS BELOW 12,000 FEET WITH NO
SIGNIFICANT WEATHER AND/OR OBSTRUCTION TO VISIBILITY.

MIZ047>049-052>055-059>063-066>070-074>076-081>083-071200-
SOUTHEAST LOWER MICHIGAN

CITY           SKY/WX    TMP DP  RH WIND       PRES   REMARKS
ADRIAN         MOCLDY    73  70  90 SW8       29.88S
ALMA           CLOUDY    70  69  96 S3        29.82S
ANN ARBOR      CLOUDY    71  68  90 S7        29.87S FOG
BAD AXE        CLOUDY    72  65  81 SW7       29.82S
CARO           CLOUDY    73  68  83 SW6       29.82S
DETROIT CITY   CLOUDY    74  68  81 SW10      29.87S HAZE
DETROIT        CLOUDY    74  68  81 S7        29.87S
FLINT          RAIN      73  68  84 S6        29.84F
GROSSE ILE     CLOUDY    72  70  94 S9        29.87S FOG
HILLSDALE      MOCLDY    74  74  98 SW6       29.87F FOG
HOWELL         CLOUDY    71  69  93 SW3       29.85F FOG

CITY           SKY/WX    TMP DP  RH WIND       PRES   REMARKS
JACKSON        CLOUDY    74  70  87 NW5       29.86S
LAMBERTVILLE   MOCLDY    75  69  82 S7        29.89S HAZE
LANSING        LGT RAIN  71  70  96 S7        29.84S FOG
LAPEER         CLOUDY    73  66  78 SW6       29.85S
MASON          CLOUDY    69  66  92 CALM      29.86S
MONROE         CLOUDY    74  70  88 S7        29.87S FOG
MT. CLEMENS    CLOUDY    73  68  84 S9        29.84S
PONTIAC        CLOUDY    73  68  84 SW10      29.86R HAZE
PORT HOPE        N/A     73  66  78 VRB3      29.79R
PORT HURON     CLOUDY    72  66  83 S7        29.86S FOG
TRI CITIES     CLOUDY    73  68  84 SW7       29.82R
MIDLAND        LGT RAIN  71  69  94 S3        29.79S
TROY           CLOUDY    74  68  81 SW9       29.88S
SAGINAW HB     CLOUDY    73  68  83 SW13      29.81S
$$
MIZ043>046-050>051-056>058-064>065-071>073-077>080-071200-
SOUTHWEST LOWER MICHIGAN

CITY           SKY/WX    TMP DP  RH WIND       PRES   REMARKS
BATTLE CREEK   HVY RAIN  72  69  90 W9        29.85F VSB 1
BENTON HARBOR  LGT RAIN  64  63  96 NW10G21   29.85R FOG
BIG RAPIDS     DRIZZLE   59  56  91 N10       29.86R
COLDWATER      LGT RAIN  73  71  94 W8        29.86S
FREMONT        LGT RAIN  59  58  98 N14G21    29.86R
HOLLAND        CLOUDY    62  59  90 W6        29.85R FOG
GRAND RAPIDS   CLOUDY    71  68  90 S8        29.82S
IONIA          FAIR      71  69  93 SW8       29.82S
KALAMAZOO      LGT RAIN  72  69  90 S7        29.85S
LUDINGTON      CLOUDY    56  53  91 N7        29.92R
MARSHALL       CLOUDY    72  69  91 CALM      29.85F
MOUNT PLEASANT CLOUDY    70  68  93 W3        29.81R
MUSKEGON       LGT RAIN  61  58  90 N16G28    29.85R FOG
SOUTH HAVEN    CLOUDY    63  61  93 NW13      29.86R FOG
$$
MIZ016>042-071200-
NORTHERN LOWER MICHIGAN

CITY           SKY/WX    TMP DP  RH WIND       PRES   REMARKS
ALPENA         LGT RAIN  60  58  92 NW7       29.81S FOG
BEAVER ISLAND  CLOUDY    53  49  86 NW9G16    29.90R
BELLAIRE       LGT RAIN  56  54  93 W3        29.89R
CADILLAC       DRIZZLE   56  53  92 N10G20    29.87R
CHARLEVOIX     RAIN      56  53  89 NW15      29.91S
FRANKFORT      MOCLDY    56  49  76 N6        29.91S
GAYLORD        LGT RAIN  57  56  96 NW9       29.85S FOG
GRAYLING       LGT RAIN  57  56  96 NW6       29.87R
HARBOR SPRINGS LGT RAIN  56  54  94 W6        29.87R
HOUGHTON LAKE  LGT RAIN  59  57  93 NW7       29.85R
MANISTEE       CLOUDY    54  48  82 NE7       29.92R
OSCODA         CLOUDY    71  69  95 SW6       29.78R FOG
PELLSTON       CLOUDY    56  54  93 NW13      29.86R
ROGERS CITY    HVY RAIN  60  58  96 NW8       29.82R
TRAVERSE CITY  LGT RAIN  55  53  93 NW12      29.89S FOG
$$
MIZ007>008-015-071200-
EASTERN UPPER MICHIGAN

CITY           SKY/WX    TMP DP  RH WIND       PRES   REMARKS
KINROSS        CLOUDY    52  52 100 NW12      29.84R
MACKINAC ISLAN CLOUDY    55  55 100 NW8       29.85R
NEWBERRY       PTCLDY    47  46  95 NW7       29.89R
S. S. MARIE    CLOUDY    55  53  93 NW6       29.82R FOG
$$
MIZ004>006-011>014-085-071200-
CENTRAL UPPER MICHIGAN

CITY           SKY/WX    TMP DP  RH WIND       PRES   REMARKS
MANISTIQUE     CLEAR     49  45  84 N12       29.90R
ESCANABA       CLEAR     50  46  87 NW6       29.95R
MENOMINEE      CLEAR     52  46  82 N7        29.96S
SAWYER-GWINN   CLEAR     48  45  87 N10       29.96R
$$
MIZ001>003-009>011-084-071200-
WESTERN UPPER MICHIGAN

CITY           SKY/WX    TMP DP  RH WIND       PRES   REMARKS
IRON MOUNTAIN  PTCLDY    52  48  86 NW9       29.97R
HOUGHTON       CLOUDY    50  46  86 NW12      30.00R
COPPER HARBOR    N/A     48  43  82 N12G23    29.99R
IRONWOOD       CLOUDY    52  48  87 N6        30.04R
$$

ABBREVIATIONS USED IN REMARKS
   TC - TEMPERATURE IN CELSIUS
  WCI - WIND CHILL INDEX
   HX - HEAT INDEX
  VSB - VISIBILITY



USA.gov is the U.S. government's official web portal to all federal, state and local government web resources and services.